Location: Anaheim Mobile Home Estates
(33.8153°N, 117.9967°W)
Time: 17:03:16
(UTC+00:00)

IRIDIUM 106 - Pass Details

Date: 05 August 2024
Orbit: 776 x 779 km, 86.4° (Epoch: 07 September)

Event Time Altitude Azimuth Distance (km) Brightness Sun altitude
Exits shadow 12:06:59 - 191° (SSW) 2,893 6.9 -12.1°
Reaches altitude 10° 12:08:27 10° 194° (SSW) 2,322 6.4 -11.9°
Maximum altitude 12:13:34 58° 273° (W) 903 4.4 -10.9°
Drops below altitude 10° 12:18:44 10° 353° (N) 2,336 7.1 -10.0°
Sets 12:21:08 0° 357° (N) 3,267 7.9 -9.6°
